Regional Weather Roundup
Issued by NWS

Home | Current Version | Previous Version | Text Only | Print | Product List | Glossary Off
Versions: 1 2 3 4 5 6 7 8 9 10 11 12 13 14 15 16 17 18 19 20 21 22 23 24 25 26 27 28 29 30 31 32 33 34 35 36 37 38 39 40 41 42 43 44 45 46 47 48 49 50

000
ASUS43 KTOP 222208
RWRKS

WEATHER ROUNDUP FOR KANSAS
NATIONAL WEATHER SERVICE GOODLAND KS
500 PM CDT FRI MAY 22 2015

NOTE:  "FAIR" INDICATES FEW OR NO CLOUDS BELOW 12,000 FEET WITH NO
SIGNIFICANT WEATHER AND/OR OBSTRUCTIONS TO VISIBILITY.

KSZ001>006-013>018-027>032-041>047-222300-
NORTHWEST KANSAS

CITY           SKY/WX    TMP DP  RH WIND       PRES   REMARKS
GOODLAND       CLOUDY    55  52  89 SE20      30.00F
HAYS           CLOUDY    55  46  71 SE15      30.11F
HILL CITY      CLOUDY    55  49  80 SE10      30.10F
RUSSELL        CLOUDY    56  52  86 SE14      30.11F
$$

KSZ061>065-074>080-084>089-222300-
SOUTHWEST KANSAS

CITY           SKY/WX    TMP DP  RH WIND       PRES   REMARKS
DODGE CITY     CLOUDY    56  51  84 SE20      30.09F
ELKHART          N/A     66  51  58 S17         N/A
GARDEN CITY    CLOUDY    57  53  86 SE20      30.04F
GREAT BEND     CLOUDY    57  52  82 SE20      30.10F
LIBERAL        CLOUDY    61  55  82 SE15G22   30.05F
PRATT          CLOUDY    55  54  94 SE15      30.13F FOG
$$

KSZ066>073-081>083-090>101-222300-
SOUTHEAST KANSAS

CITY           SKY/WX    TMP DP  RH WIND       PRES   REMARKS
CHANUTE        CLOUDY    63  49  60 SE10      30.19F
COFFEYVILLE    CLOUDY    64  52  64 SE6       30.19F
HUTCHINSON     CLOUDY    58  54  86 SE14      30.15F FOG
MEDICINE LODGE   N/A     57  56  96 SE7       30.12F
NEWTON         CLOUDY    59  50  72 SE10      30.18F
PARSONS        CLOUDY    63  51  65 VRB3      30.21S
WICHITA INTL   CLOUDY    60  54  80 SE12      30.15F
WICHITA JABRA  CLOUDY    60  53  77 SE12      30.16F
WICHITA MCCONL CLOUDY    60  54  81 SE7       30.16S
WINFIELD       CLOUDY    62  53  72 SE13      30.17S
$$

KSZ007>012-019>026-033>040-048>060-102>105-222300-
NORTHEAST KANSAS

CITY           SKY/WX    TMP DP  RH WIND       PRES   REMARKS
CONCORDIA      CLOUDY    58  49  72 S13       30.17S
EMPORIA        CLOUDY    63  48  58 SE9       30.18F
LAWRENCE       CLOUDY    64  47  53 SE10      30.22F
MANHATTAN      CLOUDY    65  50  58 S12       30.18F
MARYSVILLE     CLOUDY    63  46  55 S10       30.19F
OLATHE IND     LGT RAIN  63  49  60 SE7       30.23F
OLATHE EXE     LGT RAIN  63  52  67 SE5       30.23S
SALINA         LGT RAIN  59  55  87 SE10      30.16F FOG
TOPEKA BILLARD CLOUDY    63  46  54 SE10      30.22S
TOPEKA FORBES  CLOUDY    65  47  52 E9        30.20F
$$


USA.gov is the U.S. government's official web portal to all federal, state and local government web resources and services.